QPF
0.00 0.00 0.00 0.00 0.00 0.00 0.00 0.00 0.00 0.00 0.00 0.00 0.00 0.00 0.00 0.00 0.01 0.01 0.01 0.03 0.06 0.11 0.15 0.20 0.27 0.26 0.23 0.23 0.31 0.39 0.32 0.19 0.12 0.09 0.05 0.03 0.02 0.02 0.01 0.01 0.00 0.00 0.00
0.00 0.00 0.00 0.00 0.00 0.00 0.00 0.00 0.00 0.00 0.00 0.00 0.00 0.00 0.00 0.00 0.00 0.01 0.01 0.02 0.04 0.06 0.10 0.14 0.17 0.20 0.23 0.24 0.25 0.28 0.28 0.24 0.18 0.14 0.12 0.08 0.06 0.04 0.02 0.02 0.01 0.01 0.01
0.00 0.00 0.00 0.00 0.00 0.00 0.00 0.00 0.01 0.00 0.01 0.01 0.01 0.01 0.00 0.00 0.00 0.01 0.01 0.02 0.03 0.06 0.09 0.13 0.17 0.18 0.20 0.23 0.25 0.27 0.27 0.24 0.19 0.16 0.15 0.09 0.05 0.05 0.05 0.05 0.04 0.03 0.03
0.00 0.00 0.00 0.00 0.00 0.00 0.01 0.00 0.01 0.01 0.01 0.01 0.01 0.01 0.01 0.01 0.01 0.02 0.02 0.02 0.02 0.05 0.07 0.09 0.14 0.22 0.23 0.25 0.26 0.28 0.31 0.26 0.21 0.19 0.15 0.10 0.05 0.04 0.04 0.06 0.07 0.05 0.04
0.00 0.00 0.00 0.00 0.01 0.00 0.00 0.00 0.00 0.01 0.01 0.01 0.02 0.02 0.03 0.03 0.04 0.04 0.04 0.03 0.03 0.04 0.06 0.09 0.11 0.14 0.18 0.21 0.24 0.28 0.33 0.31 0.26 0.21 0.17 0.14 0.09 0.06 0.04 0.04 0.08 0.10 0.07
0.00 0.00 0.00 0.01 0.01 0.01 0.01 0.01 0.01 0.01 0.01 0.01 0.02 0.04 0.06 0.05 0.05 0.06 0.06 0.05 0.05 0.06 0.08 0.10 0.12 0.12 0.16 0.20 0.23 0.27 0.32 0.37 0.34 0.29 0.21 0.14 0.11 0.08 0.06 0.04 0.06 0.10 0.10
0.00 0.00 0.00 0.01 0.00 0.00 0.00 0.01 0.01 0.01 0.01 0.01 0.02 0.04 0.07 0.07 0.09 0.12 0.11 0.10 0.08 0.09 0.10 0.12 0.12 0.16 0.17 0.21 0.25 0.28 0.29 0.32 0.33 0.36 0.32 0.21 0.13 0.10 0.09 0.07 0.06 0.07 0.09
0.00 0.00 0.00 0.00 0.00 0.00 0.00 0.01 0.01 0.01 0.01 0.02 0.02 0.02 0.05 0.07 0.11 0.16 0.14 0.13 0.13 0.15 0.15 0.14 0.15 0.16 0.18 0.22 0.26 0.28 0.31 0.36 0.35 0.37 0.40 0.32 0.21 0.14 0.11 0.09 0.08 0.06 0.06
0.00 0.00 0.00 0.00 0.00 0.00 0.00 0.01 0.01 0.01 0.01 0.01 0.01 0.02 0.06 0.08 0.10 0.12 0.11 0.12 0.13 0.16 0.15 0.16 0.20 0.23 0.20 0.22 0.25 0.29 0.34 0.40 0.43 0.40 0.37 0.35 0.33 0.25 0.17 0.12 0.10 0.07 0.05
0.00 0.00 0.00 0.00 0.00 0.00 0.00 0.01 0.00 0.00 0.00 0.01 0.01 0.01 0.03 0.04 0.04 0.06 0.08 0.07 0.08 0.11 0.12 0.14 0.18 0.21 0.19 0.17 0.19 0.24 0.30 0.33 0.41 0.46 0.42 0.36 0.35 0.30 0.24 0.17 0.12 0.10 0.09
0.00 0.00 0.00 0.00 0.00 0.00 0.00 0.00 0.00 0.00 0.00 0.00 0.01 0.01 0.01 0.01 0.02 0.04 0.05 0.05 0.06 0.08 0.09 0.12 0.15 0.16 0.16 0.14 0.14 0.16 0.21 0.24 0.29 0.31 0.31 0.32 0.33 0.30 0.27 0.21 0.15 0.11 0.08
0.00 0.00 0.00 0.00 0.00 0.00 0.00 0.00 0.00 0.00 0.00 0.00 0.00 0.00 0.00 0.00 0.01 0.01 0.02 0.02 0.04 0.05 0.06 0.07 0.10 0.11 0.12 0.12 0.12 0.14 0.17 0.20 0.26 0.29 0.26 0.27 0.28 0.25 0.25 0.21 0.16 0.13 0.10
0.00 0.00 0.00 0.00 0.00 0.00 0.00 0.00 0.00 0.00 0.00 0.00 0.00 0.00 0.01 0.00 0.00 0.01 0.02 0.03 0.04 0.07 0.06 0.06 0.05 0.06 0.06 0.06 0.05 0.06 0.07 0.11 0.17 0.21 0.20 0.20 0.17 0.18 0.18 0.15 0.13 0.12 0.10
0.00 0.00 0.00 0.00 0.00 0.00 0.00 0.00 0.00 0.00 0.00 0.00 0.00 0.00 0.00 0.00 0.00 0.00 0.00 0.01 0.01 0.02 0.03 0.03 0.03 0.03 0.04 0.05 0.04 0.03 0.02 0.04 0.08 0.14 0.16 0.15 0.12 0.11 0.14 0.12 0.07 0.06 0.06
0.00 0.00 0.00 0.00 0.00 0.00 0.00 0.00 0.00 0.00 0.00 0.00 0.00 0.00 0.00 0.00 0.00 0.00 0.00 0.00 0.00 0.01 0.01 0.02 0.02 0.02 0.02 0.02 0.03 0.02 0.02 0.02 0.04 0.07 0.09 0.09 0.08 0.08 0.09 0.08 0.06 0.04 0.03
0.00 0.00 0.00 0.00 0.00 0.00 0.00 0.00 0.00 0.00 0.00 0.00 0.00 0.00 0.00 0.00 0.00 0.00 0.00 0.00 0.00 0.00 0.00 0.01 0.01 0.01 0.02 0.02 0.02 0.01 0.01 0.02 0.03 0.04 0.06 0.06 0.05 0.05 0.05 0.05 0.05 0.04 0.03
0.00 0.00 0.00 0.00 0.00 0.00 0.00 0.00 0.00 0.00 0.00 0.00 0.00 0.00 0.00 0.00 0.00 0.00 0.00 0.00 0.00 0.00 0.00 0.00 0.00 0.01 0.02 0.03 0.02 0.01 0.01 0.03 0.04 0.03 0.02 0.04 0.05 0.05 0.05 0.04 0.04 0.03 0.03
0.00 0.00 0.00 0.00 0.00 0.00 0.00 0.00 0.00 0.00 0.00 0.00 0.00 0.00 0.00 0.00 0.00 0.00 0.00 0.00 0.00 0.00 0.00 0.00 0.00 0.00 0.01 0.02 0.02 0.02 0.02 0.02 0.04 0.05 0.04 0.03 0.03 0.06 0.07 0.06 0.05 0.04 0.03
0.00 0.00 0.00 0.00 0.00 0.00 0.00 0.00 0.00 0.00 0.00 0.00 0.00 0.00 0.00 0.00 0.00 0.00 0.00 0.00 0.00 0.00 0.00 0.00 0.01 0.01 0.01 0.01 0.01 0.01 0.01 0.01 0.02 0.03 0.04 0.04 0.04 0.06 0.09 0.10 0.07 0.05 0.04
0.00 0.00 0.00 0.00 0.00 0.00 0.00 0.00 0.00 0.00 0.00 0.00 0.00 0.00 0.00 0.00 0.00 0.00 0.00 0.00 0.00 0.00 0.00 0.00 0.01 0.02 0.01 0.01 0.02 0.01 0.01 0.03 0.03 0.03 0.03 0.04 0.07 0.08 0.09 0.10 0.09 0.06 0.05
0.00 0.00 0.00 0.00 0.00 0.00 0.00 0.00 0.00 0.00 0.00 0.00 0.00 0.00 0.00 0.00 0.00 0.00 0.00 0.00 0.00 0.00 0.00 0.00 0.02 0.02 0.02 0.02 0.02 0.02 0.02 0.03 0.04 0.03 0.03 0.04 0.08 0.10 0.10 0.11 0.10 0.09 0.07
0.00 0.00 0.00 0.00 0.00 0.00 0.00 0.00 0.00 0.00 0.00 0.00 0.00 0.00 0.00 0.00 0.00 0.00 0.00 0.00 0.00 0.00 0.00 0.00 0.01 0.02 0.02 0.02 0.02 0.02 0.03 0.04 0.05 0.04 0.04 0.06 0.09 0.11 0.10 0.09 0.10 0.11 0.08
0.00 0.00 0.00 0.00 0.00 0.00 0.00 0.00 0.00 0.00 0.00 0.00 0.00 0.00 0.00 0.00 0.00 0.00 0.00 0.00 0.00 0.00 0.00 0.00 0.00 0.01 0.01 0.01 0.02 0.02 0.03 0.05 0.05 0.04 0.05 0.08 0.09 0.10 0.10 0.11 0.11 0.10 0.08
0.00 0.00 0.00 0.00 0.00 0.00 0.00 0.00 0.00 0.00 0.00 0.00 0.00 0.00 0.00 0.00 0.00 0.00 0.00 0.00 0.00 0.00 0.00 0.00 0.00 0.00 0.00 0.00 0.01 0.01 0.01 0.02 0.02 0.03 0.04 0.07 0.09 0.10 0.09 0.10 0.11 0.09 0.08
0.00 0.00 0.00 0.00 0.00 0.00 0.00 0.00 0.00 0.00 0.00 0.00 0.00 0.00 0.00 0.00 0.00 0.00 0.00 0.00 0.00 0.00 0.00 0.00 0.00 0.00 0.00 0.00 0.00 0.01 0.01 0.01 0.02 0.02 0.04 0.06 0.08 0.09 0.08 0.08 0.07 0.05 0.04
0.00 0.00 0.00 0.00 0.00 0.00 0.00 0.00 0.00 0.00 0.00 0.00 0.00 0.00 0.00 0.00 0.00 0.00 0.00 0.00 0.00 0.00 0.00 0.00 0.00 0.00 0.00 0.00 0.00 0.01 0.01 0.01 0.01 0.02 0.03 0.04 0.06 0.06 0.05 0.05 0.04 0.03 0.02
MSLP
1020.32 1020.08 1019.84 1019.59 1019.29 1018.93 1018.52 1018.07 1017.60 1017.13 1016.68 1016.27 1015.89 1015.55 1015.23 1014.91 1014.57 1014.22 1013.85 1013.48 1013.14 1012.84 1012.62 1012.51 1012.51 1012.64 1012.86 1013.17 1013.53 1013.91 1014.27 1014.60 1014.87 1015.07 1015.21 1015.30 1015.34 1015.36 1015.37 1015.40 1015.44 1015.52 1015.63
1020.62 1020.37 1020.12 1019.85 1019.52 1019.14 1018.70 1018.23 1017.76 1017.29 1016.87 1016.47 1016.12 1015.78 1015.45 1015.10 1014.71 1014.29 1013.85 1013.40 1012.97 1012.60 1012.32 1012.14 1012.09 1012.15 1012.33 1012.59 1012.92 1013.29 1013.67 1014.03 1014.36 1014.65 1014.89 1015.08 1015.23 1015.34 1015.43 1015.50 1015.57 1015.65 1015.73
1020.70 1020.46 1020.21 1019.93 1019.61 1019.22 1018.79 1018.33 1017.88 1017.44 1017.04 1016.68 1016.35 1016.02 1015.67 1015.28 1014.84 1014.35 1013.83 1013.29 1012.78 1012.33 1011.97 1011.72 1011.60 1011.60 1011.72 1011.94 1012.23 1012.58 1012.96 1013.36 1013.75 1014.12 1014.47 1014.78 1015.05 1015.28 1015.47 1015.61 1015.72 1015.81 1015.89
1020.57 1020.34 1020.11 1019.85 1019.54 1019.18 1018.77 1018.35 1017.93 1017.54 1017.18 1016.85 1016.53 1016.21 1015.84 1015.42 1014.92 1014.37 1013.77 1013.16 1012.57 1012.05 1011.61 1011.30 1011.10 1011.04 1011.09 1011.25 1011.50 1011.81 1012.19 1012.60 1013.04 1013.49 1013.93 1014.36 1014.75 1015.10 1015.39 1015.62 1015.80 1015.93 1016.01
1020.29 1020.09 1019.88 1019.65 1019.37 1019.04 1018.67 1018.28 1017.91 1017.55 1017.23 1016.94 1016.64 1016.32 1015.94 1015.49 1014.96 1014.35 1013.70 1013.03 1012.38 1011.79 1011.30 1010.92 1010.66 1010.52 1010.50 1010.59 1010.78 1011.05 1011.39 1011.80 1012.26 1012.75 1013.27 1013.78 1014.28 1014.73 1015.13 1015.46 1015.71 1015.89 1016.01
1019.95 1019.77 1019.60 1019.39 1019.14 1018.84 1018.51 1018.16 1017.82 1017.50 1017.22 1016.94 1016.66 1016.35 1015.96 1015.50 1014.95 1014.32 1013.64 1012.94 1012.26 1011.63 1011.09 1010.66 1010.34 1010.13 1010.04 1010.05 1010.16 1010.36 1010.65 1011.02 1011.46 1011.96 1012.51 1013.07 1013.63 1014.17 1014.66 1015.07 1015.41 1015.66 1015.83
1019.64 1019.48 1019.33 1019.15 1018.92 1018.65 1018.34 1018.01 1017.69 1017.40 1017.13 1016.88 1016.61 1016.31 1015.94 1015.48 1014.94 1014.32 1013.64 1012.95 1012.27 1011.63 1011.06 1010.59 1010.22 1009.95 1009.78 1009.70 1009.72 1009.83 1010.03 1010.32 1010.71 1011.17 1011.70 1012.27 1012.87 1013.45 1014.00 1014.50 1014.91 1015.24 1015.49
1019.40 1019.26 1019.12 1018.95 1018.74 1018.47 1018.17 1017.86 1017.55 1017.27 1017.02 1016.77 1016.52 1016.24 1015.89 1015.47 1014.96 1014.38 1013.75 1013.08 1012.43 1011.81 1011.24 1010.75 1010.33 1010.00 1009.75 1009.58 1009.50 1009.50 1009.59 1009.78 1010.07 1010.46 1010.93 1011.47 1012.05 1012.65 1013.24 1013.79 1014.27 1014.69 1015.02
1019.26 1019.11 1018.98 1018.81 1018.60 1018.33 1018.03 1017.72 1017.42 1017.14 1016.89 1016.66 1016.43 1016.17 1015.87 1015.49 1015.04 1014.52 1013.95 1013.35 1012.75 1012.17 1011.62 1011.12 1010.68 1010.30 1009.97 1009.71 1009.52 1009.40 1009.38 1009.45 1009.63 1009.91 1010.29 1010.76 1011.30 1011.87 1012.47 1013.05 1013.59 1014.08 1014.50
1019.16 1019.02 1018.87 1018.70 1018.48 1018.20 1017.90 1017.59 1017.29 1017.02 1016.79 1016.57 1016.37 1016.14 1015.88 1015.57 1015.19 1014.75 1014.25 1013.73 1013.20 1012.66 1012.15 1011.66 1011.20 1010.78 1010.39 1010.05 1009.76 1009.54 1009.40 1009.35 1009.41 1009.57 1009.85 1010.23 1010.69 1011.22 1011.80 1012.39 1012.96 1013.51 1014.01
1019.07 1018.91 1018.76 1018.57 1018.34 1018.06 1017.76 1017.46 1017.18 1016.92 1016.71 1016.52 1016.34 1016.16 1015.95 1015.69 1015.38 1015.01 1014.60 1014.15 1013.69 1013.21 1012.73 1012.26 1011.80 1011.36 1010.93 1010.53 1010.17 1009.87 1009.63 1009.48 1009.43 1009.48 1009.65 1009.93 1010.30 1010.77 1011.30 1011.87 1012.45 1013.04 1013.59
1018.92 1018.76 1018.58 1018.38 1018.14 1017.87 1017.59 1017.31 1017.06 1016.84 1016.66 1016.51 1016.37 1016.22 1016.04 1015.83 1015.58 1015.27 1014.93 1014.55 1014.14 1013.71 1013.27 1012.83 1012.38 1011.93 1011.49 1011.06 1010.66 1010.30 1010.00 1009.78 1009.64 1009.61 1009.68 1009.86 1010.15 1010.53 1010.99 1011.52 1012.08 1012.67 1013.26
1018.70 1018.52 1018.33 1018.11 1017.88 1017.63 1017.39 1017.16 1016.96 1016.79 1016.65 1016.54 1016.43 1016.31 1016.16 1015.98 1015.75 1015.49 1015.18 1014.84 1014.48 1014.09 1013.69 1013.28 1012.85 1012.42 1011.98 1011.55 1011.15 1010.77 1010.44 1010.18 1010.00 1009.90 1009.90 1009.99 1010.19 1010.48 1010.86 1011.32 1011.83 1012.39 1012.97
1018.41 1018.21 1018.00 1017.78 1017.56 1017.35 1017.16 1016.99 1016.86 1016.76 1016.68 1016.61 1016.52 1016.42 1016.28 1016.11 1015.89 1015.63 1015.34 1015.02 1014.68 1014.32 1013.94 1013.56 1013.16 1012.75 1012.35 1011.95 1011.56 1011.21 1010.89 1010.62 1010.42 1010.29 1010.23 1010.26 1010.37 1010.57 1010.86 1011.23 1011.67 1012.16 1012.70
1018.08 1017.86 1017.64 1017.43 1017.23 1017.07 1016.94 1016.85 1016.80 1016.77 1016.74 1016.71 1016.65 1016.55 1016.41 1016.22 1015.98 1015.71 1015.40 1015.08 1014.74 1014.40 1014.04 1013.68 1013.31 1012.95 1012.58 1012.22 1011.88 1011.56 1011.28 1011.04 1010.84 1010.70 1010.61 1010.58 1010.62 1010.74 1010.93 1011.19 1011.53 1011.94 1012.41
1017.75 1017.52 1017.29 1017.09 1016.93 1016.82 1016.76 1016.75 1016.77 1016.81 1016.84 1016.84 1016.79 1016.69 1016.53 1016.31 1016.04 1015.74 1015.42 1015.08 1014.73 1014.39 1014.04 1013.70 1013.36 1013.03 1012.70 1012.39 1012.10 1011.83 1011.59 1011.39 1011.21 1011.07 1010.97 1010.91 1010.89 1010.93 1011.02 1011.18 1011.42 1011.73 1012.11
1017.45 1017.21 1016.99 1016.81 1016.68 1016.63 1016.63 1016.69 1016.79 1016.88 1016.95 1016.98 1016.94 1016.83 1016.65 1016.40 1016.10 1015.77 1015.43 1015.07 1014.72 1014.37 1014.03 1013.70 1013.38 1013.07 1012.78 1012.50 1012.25 1012.03 1011.83 1011.66 1011.52 1011.39 1011.29 1011.21 1011.15 1011.12 1011.13 1011.20 1011.34 1011.54 1011.83
1017.19 1016.95 1016.75 1016.59 1016.51 1016.50 1016.56 1016.67 1016.82 1016.96 1017.06 1017.10 1017.07 1016.95 1016.76 1016.50 1016.18 1015.84 1015.48 1015.12 1014.77 1014.42 1014.09 1013.77 1013.45 1013.16 1012.88 1012.62 1012.39 1012.19 1012.02 1011.87 1011.75 1011.65 1011.55 1011.46 1011.38 1011.32 1011.28 1011.27 1011.33 1011.45 1011.65
1016.94 1016.73 1016.55 1016.43 1016.38 1016.40 1016.51 1016.66 1016.83 1017.00 1017.12 1017.17 1017.15 1017.03 1016.84 1016.59 1016.29 1015.96 1015.62 1015.27 1014.93 1014.60 1014.27 1013.96 1013.64 1013.34 1013.05 1012.79 1012.56 1012.36 1012.19 1012.06 1011.95 1011.86 1011.78 1011.70 1011.62 1011.54 1011.48 1011.44 1011.44 1011.51 1011.64
1016.66 1016.50 1016.36 1016.28 1016.26 1016.32 1016.44 1016.61 1016.79 1016.97 1017.09 1017.15 1017.14 1017.04 1016.87 1016.65 1016.39 1016.11 1015.81 1015.51 1015.21 1014.91 1014.60 1014.29 1013.97 1013.65 1013.34 1013.05 1012.79 1012.57 1012.39 1012.25 1012.15 1012.07 1012.00 1011.94 1011.88 1011.82 1011.77 1011.73 1011.72 1011.76 1011.86
1016.33 1016.23 1016.14 1016.10 1016.11 1016.19 1016.32 1016.49 1016.67 1016.83 1016.95 1017.01 1017.01 1016.94 1016.82 1016.65 1016.46 1016.25 1016.03 1015.80 1015.56 1015.30 1015.02 1014.72 1014.40 1014.07 1013.73 1013.40 1013.11 1012.85 1012.64 1012.48 1012.36 1012.29 1012.24 1012.21 1012.19 1012.17 1012.15 1012.14 1012.16 1012.20 1012.29
1015.91 1015.88 1015.85 1015.85 1015.90 1015.99 1016.11 1016.27 1016.43 1016.57 1016.68 1016.74 1016.75 1016.72 1016.65 1016.56 1016.45 1016.33 1016.21 1016.07 1015.91 1015.71 1015.48 1015.20 1014.89 1014.54 1014.18 1013.82 1013.48 1013.18 1012.94 1012.75 1012.63 1012.55 1012.52 1012.52 1012.54 1012.57 1012.61 1012.66 1012.72 1012.80 1012.92
1015.41 1015.44 1015.48 1015.53 1015.60 1015.70 1015.82 1015.95 1016.09 1016.20 1016.29 1016.35 1016.38 1016.38 1016.37 1016.36 1016.34 1016.32 1016.29 1016.25 1016.18 1016.06 1015.88 1015.65 1015.35 1015.01 1014.64 1014.26 1013.90 1013.57 1013.29 1013.09 1012.95 1012.87 1012.85 1012.87 1012.93 1013.01 1013.11 1013.22 1013.34 1013.47 1013.63
1014.82 1014.92 1015.01 1015.11 1015.21 1015.32 1015.44 1015.56 1015.67 1015.75 1015.83 1015.88 1015.92 1015.96 1016.00 1016.05 1016.11 1016.19 1016.25 1016.30 1016.31 1016.27 1016.16 1015.97 1015.72 1015.40 1015.05 1014.67 1014.31 1013.97 1013.68 1013.46 1013.31 1013.23 1013.21 1013.25 1013.33 1013.45 1013.60 1013.76 1013.94 1014.13 1014.35
1014.18 1014.33 1014.47 1014.60 1014.74 1014.87 1014.99 1015.10 1015.19 1015.26 1015.32 1015.37 1015.42 1015.48 1015.56 1015.66 1015.79 1015.92 1016.06 1016.18 1016.26 1016.29 1016.24 1016.12 1015.92 1015.66 1015.35 1015.01 1014.67 1014.35 1014.07 1013.86 1013.70 1013.62 1013.60 1013.64 1013.73 1013.86 1014.03 1014.23 1014.45 1014.69 1014.95
1013.50 1013.67 1013.84 1014.01 1014.17 1014.32 1014.46 1014.58 1014.67 1014.75 1014.81 1014.86 1014.92 1015.00 1015.10 1015.23 1015.39 1015.57 1015.74 1015.90 1016.03 1016.11 1016.12 1016.06 1015.93 1015.73 1015.49 1015.22 1014.94 1014.67 1014.43 1014.24 1014.10 1014.01 1013.98 1014.01 1014.09 1014.22 1014.38 1014.59 1014.83 1015.09 1015.38
Thickness
5672 5673 5673 5672 5672 5673 5673 5674 5675 5677 5680 5683 5685 5688 5691 5696 5701 5705 5710 5714 5718 5722 5725 5728 5731 5733 5734 5736 5737 5735 5735 5735 5738 5737 5738 5742 5748 5750 5752 5753 5752 5752 5752
5664 5664 5665 5664 5663 5663 5664 5666 5666 5668 5670 5672 5675 5678 5681 5685 5690 5695 5700 5704 5709 5713 5718 5721 5724 5726 5729 5730 5732 5731 5730 5730 5732 5730 5727 5726 5731 5739 5746 5748 5749 5749 5749
5659 5659 5658 5657 5657 5657 5657 5659 5659 5661 5662 5665 5667 5670 5673 5676 5679 5683 5689 5694 5699 5704 5709 5713 5717 5720 5723 5724 5727 5728 5727 5724 5727 5730 5726 5720 5720 5727 5735 5740 5743 5745 5745
5658 5656 5655 5654 5653 5653 5653 5653 5653 5654 5656 5657 5658 5659 5661 5663 5668 5672 5678 5684 5690 5695 5700 5705 5709 5713 5716 5719 5721 5723 5723 5722 5721 5723 5726 5727 5727 5722 5722 5728 5734 5738 5740
5658 5656 5655 5653 5652 5652 5651 5650 5649 5649 5650 5650 5651 5652 5653 5656 5660 5665 5669 5675 5681 5686 5691 5696 5701 5705 5709 5713 5716 5718 5719 5720 5720 5719 5719 5720 5721 5723 5720 5717 5722 5727 5732
5658 5657 5656 5654 5651 5651 5649 5647 5646 5645 5645 5646 5646 5646 5647 5649 5652 5656 5661 5666 5671 5677 5683 5688 5692 5697 5702 5705 5709 5712 5714 5715 5717 5717 5718 5717 5716 5716 5717 5715 5715 5718 5722
5658 5656 5655 5652 5650 5649 5647 5645 5643 5642 5642 5641 5642 5642 5642 5643 5645 5649 5653 5658 5662 5667 5673 5678 5683 5688 5694 5698 5702 5705 5708 5710 5711 5713 5714 5715 5717 5717 5716 5713 5711 5712 5715
5660 5659 5657 5654 5652 5650 5647 5645 5642 5640 5640 5639 5639 5639 5639 5639 5641 5644 5647 5651 5655 5659 5664 5669 5674 5680 5685 5690 5694 5698 5701 5704 5706 5708 5709 5710 5712 5713 5714 5712 5708 5705 5706
5664 5661 5660 5657 5655 5652 5649 5646 5642 5640 5639 5638 5637 5637 5637 5637 5638 5640 5643 5646 5649 5654 5657 5661 5666 5671 5676 5681 5685 5689 5693 5697 5700 5702 5704 5705 5707 5708 5710 5710 5709 5705 5700
5666 5664 5661 5659 5657 5654 5651 5648 5644 5641 5639 5638 5636 5636 5635 5635 5635 5637 5638 5641 5644 5647 5650 5653 5657 5662 5667 5672 5676 5681 5685 5689 5693 5696 5698 5699 5702 5703 5704 5705 5705 5705 5703
5668 5666 5664 5662 5660 5657 5654 5650 5646 5643 5640 5638 5636 5635 5634 5634 5634 5634 5635 5637 5639 5642 5644 5646 5650 5654 5657 5662 5667 5672 5676 5680 5684 5689 5690 5693 5696 5697 5698 5699 5699 5700 5700
5673 5670 5667 5664 5661 5658 5655 5652 5648 5645 5642 5640 5637 5635 5633 5633 5632 5632 5633 5634 5635 5637 5638 5640 5643 5646 5649 5654 5658 5663 5667 5671 5676 5680 5682 5685 5689 5690 5692 5693 5694 5695 5696
5676 5672 5669 5666 5663 5660 5657 5654 5651 5648 5645 5641 5638 5636 5633 5632 5631 5630 5631 5631 5632 5632 5634 5636 5637 5640 5643 5647 5651 5655 5659 5663 5667 5671 5674 5678 5681 5683 5685 5687 5688 5689 5690
5677 5674 5671 5668 5666 5663 5660 5657 5653 5650 5647 5643 5639 5636 5633 5632 5630 5630 5630 5629 5629 5630 5630 5631 5633 5635 5638 5641 5644 5648 5652 5655 5659 5663 5666 5669 5673 5675 5677 5679 5681 5682 5682
5682 5679 5675 5672 5669 5666 5663 5659 5655 5652 5648 5644 5640 5637 5634 5632 5631 5629 5629 5628 5627 5627 5627 5627 5628 5630 5633 5636 5637 5640 5643 5646 5649 5654 5657 5661 5665 5668 5671 5673 5674 5675 5676
5685 5684 5681 5677 5673 5670 5666 5661 5657 5654 5650 5645 5641 5638 5636 5633 5631 5629 5628 5627 5626 5625 5624 5624 5624 5625 5627 5630 5632 5634 5635 5637 5640 5644 5647 5652 5655 5660 5664 5666 5669 5671 5671
5689 5687 5684 5680 5677 5674 5670 5665 5661 5656 5652 5647 5643 5639 5636 5633 5631 5629 5627 5625 5624 5622 5621 5620 5620 5620 5622 5625 5626 5628 5628 5629 5631 5634 5638 5642 5646 5650 5654 5658 5661 5664 5666
5694 5691 5687 5684 5681 5678 5674 5669 5664 5659 5654 5649 5644 5641 5637 5634 5631 5629 5626 5624 5623 5621 5619 5617 5616 5615 5616 5619 5620 5621 5621 5622 5624 5626 5629 5633 5637 5642 5646 5649 5652 5655 5658
5699 5695 5692 5688 5684 5681 5677 5671 5665 5660 5655 5651 5647 5643 5639 5635 5632 5629 5626 5624 5621 5619 5617 5614 5612 5610 5609 5612 5614 5615 5614 5615 5616 5619 5623 5626 5630 5636 5640 5643 5645 5647 5649
5704 5700 5696 5692 5687 5684 5679 5673 5666 5661 5657 5654 5650 5646 5642 5637 5633 5630 5627 5624 5620 5617 5615 5612 5608 5605 5603 5605 5607 5608 5607 5607 5609 5612 5616 5620 5625 5630 5633 5636 5639 5641 5643
5709 5705 5700 5694 5690 5687 5681 5674 5668 5664 5662 5658 5654 5649 5645 5640 5636 5632 5628 5624 5620 5616 5613 5609 5605 5601 5599 5599 5600 5602 5601 5601 5603 5606 5610 5614 5620 5624 5628 5632 5634 5636 5639
5711 5707 5701 5696 5693 5689 5683 5677 5671 5670 5666 5661 5657 5652 5648 5644 5640 5633 5629 5624 5619 5615 5610 5606 5602 5599 5596 5595 5596 5598 5598 5599 5600 5602 5605 5610 5615 5619 5623 5627 5630 5632 5634
5713 5709 5703 5699 5696 5692 5687 5681 5678 5674 5669 5664 5659 5655 5651 5646 5642 5636 5630 5625 5620 5615 5610 5606 5601 5598 5595 5595 5596 5596 5597 5598 5599 5600 5604 5608 5612 5615 5619 5623 5625 5628 5629
5715 5711 5705 5700 5697 5695 5691 5688 5684 5679 5673 5667 5663 5658 5653 5649 5644 5639 5634 5628 5623 5618 5613 5609 5604 5600 5598 5596 5596 5596 5596 5598 5599 5600 5603 5606 5609 5612 5616 5618 5620 5622 5625
5717 5713 5707 5703 5701 5698 5694 5692 5688 5683 5676 5671 5667 5663 5658 5653 5648 5643 5637 5633 5628 5622 5618 5613 5608 5604 5602 5600 5600 5599 5599 5599 5600 5601 5602 5604 5606 5609 5612 5614 5617 5618 5620
5719 5714 5710 5706 5704 5701 5698 5695 5692 5687 5681 5675 5671 5666 5661 5657 5651 5646 5641 5637 5633 5630 5625 5620 5615 5611 5608 5606 5605 5605 5605 5605 5605 5605 5604 5604 5606 5608 5610 5612 5614 5616 5617